TimeCDT,TemperatureF,Dew PointF,Humidity,Sea Level PressureIn,VisibilityMPH,Wind Direction,Wind SpeedMPH,Gust SpeedMPH,PrecipitationIn,Events,Conditions,WindDirDegrees,DateUTC
12:15 AM,53.6,46.4,77,29.68,10.0,NNE,10.4,-,N/A,,Clear,20,2012-10-14 05:15:00
12:35 AM,53.6,46.4,77,29.70,10.0,North,11.5,-,N/A,,Clear,10,2012-10-14 05:35:00
12:55 AM,53.6,46.4,77,29.70,10.0,NNE,9.2,-,N/A,,Clear,20,2012-10-14 05:55:00
1:15 AM,53.6,48.2,82,29.71,7.0,NNE,10.4,16.1,N/A,,Clear,20,2012-10-14 06:15:00
1:35 AM,53.6,48.2,82,29.71,7.0,NNE,9.2,-,N/A,,Clear,20,2012-10-14 06:35:00
1:55 AM,51.8,48.2,88,29.71,7.0,North,8.1,-,N/A,,Clear,360,2012-10-14 06:55:00
2:35 AM,51.8,46.4,82,29.72,7.0,North,10.4,-,N/A,,Clear,350,2012-10-14 07:35:00
2:55 AM,50.0,46.4,87,29.73,7.0,North,10.4,-,N/A,,Clear,350,2012-10-14 07:55:00
3:15 AM,48.2,46.4,93,29.73,7.0,North,10.4,-,N/A,,Clear,360,2012-10-14 08:15:00
3:35 AM,48.2,46.4,93,29.74,5.0,North,9.2,-,N/A,,Clear,360,2012-10-14 08:35:00
3:55 AM,48.2,44.6,87,29.74,5.0,North,10.4,-,N/A,,Clear,350,2012-10-14 08:55:00
4:15 AM,46.4,44.6,93,29.75,5.0,North,9.2,-,N/A,,Scattered Clouds,360,2012-10-14 09:15:00
4:35 AM,46.4,44.6,93,29.75,3.0,North,12.7,19.6,N/A,,Mostly Cloudy,360,2012-10-14 09:35:00
4:55 AM,46.4,44.6,93,29.76,4.0,North,10.4,18.4,N/A,,Overcast,10,2012-10-14 09:55:00
5:15 AM,46.4,42.8,87,29.76,7.0,North,12.7,-,N/A,,Mostly Cloudy,360,2012-10-14 10:15:00
5:35 AM,44.6,39.2,81,29.77,10.0,NNW,12.7,-,N/A,,Clear,340,2012-10-14 10:35:00
5:55 AM,44.6,37.4,76,29.78,10.0,NNW,8.1,-,N/A,,Clear,340,2012-10-14 10:55:00
6:15 AM,42.8,37.4,81,29.78,10.0,NNW,8.1,-,N/A,,Clear,330,2012-10-14 11:15:00
6:35 AM,42.8,35.6,76,29.80,10.0,NW,10.4,-,N/A,,Clear,320,2012-10-14 11:35:00
6:55 AM,42.8,35.6,76,29.80,10.0,NNW,11.5,-,N/A,,Clear,330,2012-10-14 11:55:00
7:15 AM,42.8,35.6,76,29.80,10.0,NNW,12.7,17.3,N/A,,Clear,340,2012-10-14 12:15:00
7:35 AM,42.8,35.6,76,29.81,10.0,NNW,11.5,-,N/A,,Clear,330,2012-10-14 12:35:00
7:55 AM,42.8,33.8,70,29.81,10.0,NNW,12.7,18.4,N/A,,Clear,330,2012-10-14 12:55:00
8:15 AM,42.8,33.8,70,29.82,10.0,NNW,12.7,17.3,N/A,,Clear,330,2012-10-14 13:15:00
8:35 AM,42.8,33.8,70,29.83,10.0,NNW,12.7,-,N/A,,Clear,330,2012-10-14 13:35:00
8:55 AM,42.8,33.8,70,29.84,10.0,NNW,12.7,-,N/A,,Clear,330,2012-10-14 13:55:00
9:15 AM,42.8,33.8,70,29.84,10.0,NNW,11.5,16.1,N/A,,Clear,330,2012-10-14 14:15:00
9:35 AM,46.4,33.8,62,29.84,10.0,NNW,15.0,19.6,N/A,,Clear,340,2012-10-14 14:35:00
9:55 AM,48.2,32.0,54,29.85,10.0,NNW,17.3,24.2,N/A,,Clear,340,2012-10-14 14:55:00
10:15 AM,48.2,32.0,54,29.86,10.0,NNW,19.6,23.0,N/A,,Clear,340,2012-10-14 15:15:00
10:35 AM,50.0,32.0,50,29.86,10.0,North,13.8,25.3,N/A,,Clear,350,2012-10-14 15:35:00
10:55 AM,51.8,33.8,50,29.86,10.0,North,17.3,25.3,N/A,,Clear,350,2012-10-14 15:55:00
11:15 AM,53.6,33.8,47,29.87,10.0,North,18.4,27.6,N/A,,Clear,350,2012-10-14 16:15:00
11:35 AM,53.6,33.8,47,29.87,10.0,North,13.8,25.3,N/A,,Clear,350,2012-10-14 16:35:00
11:55 AM,55.4,33.8,44,29.88,10.0,NNW,18.4,26.5,N/A,,Clear,340,2012-10-14 16:55:00
12:15 PM,55.4,33.8,44,29.88,10.0,North,12.7,27.6,N/A,,Clear,350,2012-10-14 17:15:00
12:35 PM,57.2,33.8,41,29.88,10.0,North,20.7,26.5,N/A,,Clear,350,2012-10-14 17:35:00
12:55 PM,57.2,33.8,41,29.88,10.0,North,16.1,23.0,N/A,,Clear,350,2012-10-14 17:55:00
1:15 PM,57.2,33.8,41,29.89,10.0,NNW,16.1,26.5,N/A,,Clear,340,2012-10-14 18:15:00
1:35 PM,59.0,33.8,39,29.89,10.0,North,16.1,21.9,N/A,,Clear,350,2012-10-14 18:35:00
1:55 PM,60.8,32.0,34,29.88,10.0,NNW,13.8,26.5,N/A,,Clear,330,2012-10-14 18:55:00
2:15 PM,60.8,32.0,34,29.88,10.0,North,15.0,23.0,N/A,,Clear,350,2012-10-14 19:15:00
2:35 PM,60.8,30.2,31,29.89,10.0,North,16.1,21.9,N/A,,Clear,350,2012-10-14 19:35:00
2:55 PM,62.6,30.2,30,29.89,10.0,NNW,18.4,23.0,N/A,,Clear,330,2012-10-14 19:55:00
3:15 PM,62.6,30.2,30,29.89,10.0,NW,19.6,25.3,N/A,,Clear,320,2012-10-14 20:15:00
3:35 PM,62.6,30.2,30,29.89,10.0,NW,18.4,24.2,N/A,,Clear,320,2012-10-14 20:35:00
3:55 PM,62.6,32.0,32,29.89,10.0,NNW,12.7,23.0,N/A,,Clear,330,2012-10-14 20:55:00
4:15 PM,62.6,32.0,32,29.89,10.0,NW,15.0,21.9,N/A,,Clear,320,2012-10-14 21:15:00
4:35 PM,62.6,32.0,32,29.89,10.0,NNW,15.0,-,N/A,,Clear,330,2012-10-14 21:35:00
4:55 PM,62.6,32.0,32,29.90,10.0,NNW,13.8,20.7,N/A,,Clear,330,2012-10-14 21:55:00
5:15 PM,62.6,32.0,32,29.90,10.0,NW,16.1,23.0,N/A,,Clear,320,2012-10-14 22:15:00
5:35 PM,62.6,32.0,32,29.90,10.0,NW,16.1,19.6,N/A,,Clear,320,2012-10-14 22:35:00
5:55 PM,60.8,33.8,36,29.91,10.0,NW,12.7,-,N/A,,Clear,320,2012-10-14 22:55:00
6:15 PM,59.0,33.8,39,29.91,10.0,NNW,10.4,-,N/A,,Clear,330,2012-10-14 23:15:00
6:55 PM,53.6,33.8,47,29.92,10.0,NW,5.8,-,N/A,,Clear,320,2012-10-14 23:55:00
7:15 PM,51.8,32.0,47,29.93,10.0,NW,4.6,-,N/A,,Clear,310,2012-10-15 00:15:00
7:35 PM,51.8,32.0,47,29.93,10.0,NW,4.6,-,N/A,,Clear,320,2012-10-15 00:35:00
7:55 PM,48.2,32.0,54,29.94,10.0,NW,4.6,-,N/A,,Clear,310,2012-10-15 00:55:00
8:15 PM,48.2,32.0,54,29.94,10.0,NW,6.9,-,N/A,,Clear,310,2012-10-15 01:15:00
8:35 PM,48.2,32.0,54,29.94,10.0,NW,5.8,-,N/A,,Clear,320,2012-10-15 01:35:00
8:55 PM,46.4,32.0,57,29.95,10.0,NW,4.6,-,N/A,,Clear,320,2012-10-15 01:55:00
9:15 PM,46.4,32.0,57,29.95,10.0,NW,4.6,-,N/A,,Clear,320,2012-10-15 02:15:00
9:35 PM,44.6,32.0,61,29.95,10.0,NW,5.8,-,N/A,,Clear,320,2012-10-15 02:35:00
9:55 PM,46.4,32.0,57,29.95,10.0,NNW,4.6,-,N/A,,Clear,330,2012-10-15 02:55:00
10:15 PM,48.2,32.0,54,29.95,10.0,North,4.6,-,N/A,,Clear,360,2012-10-15 03:15:00
10:35 PM,50.0,32.0,50,29.95,10.0,North,5.8,-,N/A,,Clear,350,2012-10-15 03:35:00
10:55 PM,50.0,32.0,50,29.95,10.0,North,6.9,-,N/A,,Clear,350,2012-10-15 03:55:00
11:15 PM,50.0,33.8,54,29.95,10.0,North,5.8,-,N/A,,Clear,360,2012-10-15 04:15:00
11:35 PM,50.0,33.8,54,29.95,10.0,North,4.6,-,N/A,,Clear,360,2012-10-15 04:35:00
11:55 PM,50.0,33.8,54,29.95,10.0,North,6.9,-,N/A,,Clear,10,2012-10-15 04:55:00